www.pogodaiklimat.ru

Погода и климат >> Архив погоды >> Россия >> Пермский край >> Березники


ПОГОДА в Березниках

  • Прогноз погоды в Березниках
  • Монитор погоды в Березниках

АРХИВ ПОГОДЫ в Березниках

Время (UTC), дата Ветер
(напр.,м/с)
 
Видим.   Явления Облачность Т
(С)
Тd
(С)
f
(%)
Тe
(С)
Тes
(С)
Комфортность P
(гПа)
Po
(гПа)
Тmin
(С)
Tmax
(С)
R
(мм)
R24
(мм)
S
(см)
03 10.09 штиль 0 10 км 4/0
[Ci fib]
+6.2 +5.1 93 +5 +6 1030.1 1008.0 +4.2
06 10.09 СЗ 1 50 км 8/1 600 м
[Cu hum Ci fib]
+12.0 +5.5 64 +12 +17 1029.9 1008.3
09 10.09 СЗ 2 50 км 9/0 2000 м
[As trans Ci fib]
+15.9 +3.9 45 +16 +21 1029.0 1007.7
12 10.09 З 3 50 км 9/0 2000 м
[As trans Ci fib]
+17.1 +5.1 45 +17 +18 1028.0 1006.8
15 10.09 З 2 50 км 8/3 600 м
[Sc diur, vesp Ac trans Ci fib]
+14.3 +6.1 58 +14 +14 1028.1 1006.7 +17.6
18 10.09 З 1 50 км 3/3 600 м
[Sc]
+11.3 +6.0 70 +11 +11 1028.7 1007.1
21 10.09 СЗ 2 50 км 8/0 2000 м
[Ac trans]
+10.7 +6.2 74 +9 +9 1029.1 1007.4
00 11.09 З 1 50 км 6/0 2000 м
[Ac trans]
+7.5 +5.7 88 +7 +7 1030.5 1008.5
03 11.09 штиль 0 50 км 9/3 600 м
[Sc Ac trans Ci fib]
+6.9 +5.4 90 +6 +6 1031.7 1009.7 +6.2
06 11.09 ЮЗ 1 20 км 3/0 2000 м
[Ac trans Ci fib]
+14.4 +8.2 66 +15 +20 1031.1 1009.6
09 11.09 З 1 50 км 3/3 600 м
[Sc diur, vesp Ci fib]
+19.4 +8.5 49 +21 +27 комфорт 1029.8 1008.7
12 11.09 З 2 50 км 8/3 600 м
[Sc diur, vesp Ci]
+20.0 +7.5 44 +22 +23 комфорт 1028.9 1007.9
15 11.09 ЮЗ 1 50 км 3/0
[Ci fib]
+14.8 +8.3 65 +15 +15 1027.8 1006.5 +20.3
18 11.09 ЮЗ 2 50 км 9/3 600 м
[Cb cap Ac trans Ci fib]
+14.5 +8.3 66 +14 +14 1026.9 1005.6
21 11.09 З 3 50 км 10/0 2000 м
[Ac trans Ci fib]
+14.4 +9.2 71 +14 +14 1026.0 1004.7
00 12.09 З 3 4000 м слаб. ливневой дождь 10/5 600 м
[Cb cap Ac As]
+12.7 +11.6 93 +11 +11 1025.9 1004.4
03 12.09 Ю 1 20 км {ливн. осадки} 10/8 600 м
[Sc Ac As Ci fib]
+12.6 +11.6 94 +13 +13 1025.6 1004.2 +12.0 7
06 12.09 З 1 50 км {ливн. осадки} 10/8 300 м
[Sc Ac As]
+14.6 +11.6 82 +15 +15 1026.1 1004.8
09 12.09 З 1 50 км 4/4 600 м
[Cu Sc]
+18.6 +12.8 69 +20 +25 1025.2 1004.2
12 12.09 штиль 0 50 км 10/1 1000 м
[Cu med, cong Cs]
+19.5 +13.4 68 +21 +23 комфорт 1023.7 1002.8
15 12.09 штиль 0 50 км 10/6 600 м
[Cb calv Ac As Ci fib]
+16.9 +13.9 82 +17 +17 1022.6 1001.6 +20.1
18 12.09 ЮЗ 2 50 км 10/4 600 м
[Cu hum Ac As]
+16.4 +12.0 75 +17 +17 1021.7 1000.6
21 12.09 ЮЗ 1 50 км 6/0 2000 м
[Ac trans Ci fib]
+14.0 +11.1 83 +14 +14 1020.6 999.4
00 13.09 штиль 0 50 км гроза без осадков 10/8 300 м
[Cb calv Ac As]
+13.4 +11.3 87 +13 +13 1019.7 998.5
03 13.09 Ю 1 50 км {гроза, ливн. осадки} 10/3 600 м
[Sc Ac cuf Ci fib]
+13.4 +11.3 87 +14 +14 1019.7 997.5 +12.0
06 13.09 ЮЗ 2 50 км {гроза, ливн. осадки} 8/0 2000 м
[Ac As Ci fib]
+16.3 +11.1 71 +16 +19 1018.1 997.0
09 13.09 ЮЗ 1 50 км в посл. час ливневой дождь 10/9 600 м
[Cb cap Ac As]
+16.8 +12.7 77 +18 +18 1017.5 996.5
12 13.09 Ю 2 50 км {ливн. осадки} 8/5 600 м
[Cb cap Ac As Ci fib]
+19.1 +12.1 64 +21 +21 комфорт 1015.7 994.9
15 13.09 Ю 2 50 км 3/0
[Ci fib]
+16.6 +10.9 69 +17 +17 1014.7 993.8 +19.3 0.5
18 13.09 ЮЗ 2 50 км 3/0
[Ci fib]
+15.1 +9.4 69 +15 +15 1014.4 993.3
21 13.09 ЮЗ 1 50 км 8/5 600 м
[Sc Ac As]
+14.3 +8.9 70 +15 +15 1013.4 992.3
00 14.09 Ю 1 50 км 8/5 600 м
[Sc Ac As]
+11.3 +8.3 82 +11 +11 1012.7 991.4
03 14.09 СВ 1 50 км 8/6 600 м
[Sc Ac As]
+12.3 +9.0 80 +12 +12 1012.2 991.0 +11.0
06 14.09 Ю 2 50 км 9/0 2000 м
[Ac trans Ci fib]
+17.8 +9.4 58 +18 +21 1010.7 989.9
09 14.09 ЮЗ 3 50 км 9/3 600 м
[Cu hum Ac trans Ci fib]
+22.7 +7.7 38 +24 +26 комфорт 1009.0 988.6
12 14.09 Ю 4-10
{10}
50 км 10/3 600 м
[Cu hum Ac trans Ci fib]
+22.0 +8.2 41 +23 +24 комфорт 1008.1 987.7
15 14.09 Ю 4
{10}
50 км 10/4 600 м
[Cu hum Ac As]
+19.5 +8.3 48 +20 +20 1007.6 987.0 +23.0
18 14.09 Ю 3 50 км 10/8 600 м
[Sc As op]
+18.3 +6.6 46 +19 +19 1006.4 985.7
21 14.09 ЮЗ 1
{11}
50 км 10/8 600 м
[Sc As op]
+15.8 +8.1 60 +17 +17 1006.5 985.7
00 15.09 ЮЗ 1 50 км 10/8 600 м
[Sc As op]
+14.2 +8.7 69 +15 +15 1006.2 985.3
03 15.09 ЮЗ 1 50 км {ливн. осадки} 10/8 600 м
[Cb cap Ac As]
+13.4 +10.4 82 +14 +14 1006.4 985.4 +13.0
06 15.09 ЮЗ 1 50 км в посл. час ливневой дождь 10/8 300 м
[Cb cap Ac As]
+12.6 +8.9 78 +13 +13 1006.8 985.7 +12.4
09 15.09 Ю 2 50 км 10/6 300 м
[Cb cap Ac As]
+14.1 +9.0 71 +14 +14 1005.6 984.6
12 15.09 Ю 2 50 км {ливн. осадки} 10/9 300 м
[Cb cap Ac As]
+11.8 +9.5 86 +11 +11 1005.5 984.4
15 15.09 Ю 2 50 км {ливн. осадки} 8/0 2000 м
[Ac As Ci fib]
+10.2 +8.1 87 +9 +9 1005.2 983.9 +14.2 5
18 15.09 Ю 2 50 км {ливн. осадки} 6/0 2000 м
[Ac As Ci fib]
+9.1 +7.3 88 +7 +7 1005.2 983.9
21 15.09 ЮЗ 2 50 км 9/0
[Ci]
+7.3 +5.4 88 +5 +5 1005.1 983.6
00 16.09 Ю 2 50 км 4/0
[Ci fib]
+5.6 +3.6 87 +3 +3 1004.6 983.0
03 16.09 Ю 2 50 км 3/0 2000 м
[Ac trans Ci fib]
+6.1 +3.7 85 +4 +4 1004.2 982.7 +4.8
06 16.09 ЮЗ 3 50 км 8/3 1000 м
[Sc Ac trans]
+10.5 +4.5 66 +9 +10 1003.1 981.9
09 16.09 Ю 4 50 км 8/8 600 м
[Cb calv]
+12.7 +1.8 47 +11 +12 1001.4 980.4
12 16.09 Ю 2
{10}
50 км 10/3 600 м
[Cb calv Ci]
+12.0 +2.1 51 +11 +12 999.4 978.4
15 16.09 Ю 2 50 км слаб. ливневой дождь 10/9 300 м
[Cb cap Ac As]
+8.5 +5.6 82 +7 +7 998.4 977.2 +14.1 1
18 16.09 Ю 3 10 км слаб. ливневой дождь 10/10 600 м
[Cb cap]
+8.3 +5.1 80 +6 +6 996.2 975.0
21 16.09 Ю 2 10 км слаб. ливневой дождь 10/10 300 м
[Cb cap]
+7.4 +5.8 90 +5 +5 994.1 972.9
00 17.09 Ю 2 20 км в посл. час ливневой дождь 10/10 300 м
[Cb cap]
+7.8 +6.3 90 +6 +6 993.1 971.9

 

Местоположение метеостанции Березники (Пермский край, Россия): широта 59.38 долгота 56.93 высота над уровнем моря 176 м.

В архиве по умолчанию представлена погода в Березниках за последнюю неделю. Архивные данные за месяц целиком и за предыдущие месяцы, начиная с января 2011 года, Вы можете получить, выбрав интересующий диапазон дат из раскрывающегося списка и нажав кнопку "Ввод!".


*Определитесь, кто Вы:
робот инопланетянин человек

Внимание! Время в таблицах - всемирное. Для получения местного времени необходимо прибавить поправку, которая равна 5 ч.

Смотрите также архив погоды в соседних городах и на ближайших метеорологических станциях:

Погода в Губахе (Пермский край, Россия) (63 км)
Погода в Чермозе (Пермский край, Россия) (80 км)
Погода в Добрянке (Пермский край, Россия) (107 км)
Погода в Чердыни (Пермский край, Россия) (116 км)
Погода в Косе (Пермский край, Россия) (126 км)
Погода в Кытлыме (Свердловская область, Россия) (130 км)
Погода в Кудымкаре (Пермский край, Россия) (136 км)
Погода в Кочево (Пермский край, Россия) (141 км)
Погода в Бисере (Пермский край, Россия) (146 км)
Погода в Перми (Гайва) (Пермский край, Россия) (148 км)

Пояснения к столбцам:

Ветер - указаны скорость ветра в м/с - средняя за 10 мин, порывы в срок и между сроками (в фигурных скобках) и направление, откуда дует ветер: С - северный, СВ - северо-восточный, В - восточный, ЮВ - юго-восточный, Ю - южный, ЮЗ - юго-западный, З - западный, СЗ - северо-западный.
Видимость - горизонтальная дальность видимости в метрах или километрах. При видимости от 1 до 10 км при отсутствии осадков обычно наблюдается дымка, при ухудшении видимости до 1 км и менее - туман. В сухую погоду видимость может ухудшаться дымом, пылью или мглою.
Явления - указаны атмосферные явления, наблюдавшиеся в срок или в последний час перед сроком; фигурными скобками обозначены явления, наблюдавшиеся между сроками (за 1-3 часа до срока); квадратными скобками обозначены град или гололедные отложения с указанием их диаметра в мм.
Облачность - указаны через наклонную черту общая и нижняя облачность в баллах и высота нижней границы облаков в метрах; квадратными скобками обозначены формы облаков: Ci - перистые, Cs - перисто-слоистые, Cc - перисто-кучевые, Ac - высококучевые, As - высокослоистые, Sc - слоисто-кучевые, Ns - слоисто-дождевые, Cu - кучевые, Cb - кучево-дождевые. Подробнее классификацию облаков см. в Атласе облаков (PDF).
T - Температура воздуха - температура, измеренная на высоте 2 м над землей.
Td - Температура точки росы - температура, при понижении до которой содержащийся в воздухе водяной пар достигнет насыщения.
f - Относительная влажность воздуха - влажноcть воздуха, измеренная на высоте 2 м над землей.
Te - Эффективная температура - температура, которую ощущает одетый по сезону человек в тени. Характеристика душности погоды. При расчете учитывается влияние влажности воздуха и скорости ветра на теплоощущения человека.
Tes - Эффективная температура на солнце - температура, которую ощущает человек, с поправкой на солнечный нагрев. Характеристика знойности погоды. Зависит от высоты солнца над горизонтом, облачности и скорости ветра. Ночью, в пасмурную погоду, а также при ветре 12 м/с и более поправка равна нулю.
P - Атмосферное давление - приведенное к уровню моря атмосферное давление.
Po - Атмосферное давление - измеренное на уровне метеостанции атмосферное давление.
Tmin - Минимальная температура - минимум температуры воздуха на высоте 2 м над землей.
Tmax - Максимальная температура - максимум температуры воздуха на высоте 2 м над землей.
R - Количество осадков - Количество выпавших осадков за период времени, мм. При наведении курсора мыши на число - период времени, за который выпало указанное количество осадков.
R24 - Количество осадков - Количество выпавших осадков за 24 часа, мм.
S - Снежный покров - Высота снежного покрова, см. При наведении курсора мыши на число - состояние снежного покрова и степень покрытия местности в баллах.